Regional Weather Roundup
Issued by NWS Newport/Morehead, NC

Current Version | Previous Version | Graphics & Text | Print | Product List | Glossary Off
Versions: 1 2 3 4 5 6 7 8 9 10 11 12 13 14 15 16 17 18 19 20 21 22 23 24 25 26 27 28 29 30 31 32 33 34 35 36 37 38 39 40 41 42 43 44 45 46 47 48 49 50
730 ASUS42 KMHX 120725 RWRMHX WEATHER ROUNDUP FOR EASTERN NORTH CAROLINA NATIONAL WEATHER SERVICE NEWPORT/MOREHEAD CITY NC 200 AM EST FRI FEB 12 2016 NOTE: "FAIR" INDICATES FEW OR NO CLOUDS BELOW 12,000 FEET WITH NO SIGNIFICANT WEATHER AND/OR OBSTRUCTIONS TO VISIBILITY NCZ015>017-031-032-045>047-102-103-120800- NORTH COAST CITY SKY/WX TMP DP RH WIND PRES REMARKS EDENTON CLEAR 26 13 59 N3 30.33S ELIZABETH CITY CLEAR 28 12 51 N10 30.33R WCI 19 KITTY HAWK SUNNY 29 13 50 CALM 30.29F MANTEO CLEAR 32 13 47 N3 30.31F $$ NCZ045>047-081-094-103-104-120800- CENTRAL COAST CITY SKY/WX TMP DP RH WIND PRES REMARKS FRISCO CLEAR 34 13 41 VRB3 30.31S SWANQUARTER N/A 25 N/A N/A NE1 30.30S $$ NCZ095-097-098-100-101-120800- SOUTHERN COAST CITY SKY/WX TMP DP RH WIND PRES REMARKS BEAUFORT CLEAR 32 17 54 NE5 30.30R CEDAR ISLAND N/A 36 N/A N/A NE9G17 30.36S JACKSONVILLE CLEAR 29 19 66 NE5 30.30R PINEY ISLAND SUNNY N/A N/A N/A N9 30.30F WILMINGTON PTCLDY 28 23 81 NE7 30.27S $$ NCZ011>013-027>030-043-044-078>080-089-090>093-098-120800- COASTAL PLAIN CITY SKY/WX TMP DP RH WIND PRES REMARKS AHOSKIE CLEAR 24 9 53 CALM 30.34S CLINTON CLEAR 31 20 62 NE5 30.31R ELIZABETHTOWN CLEAR 29 24 82 CALM 30.27F GOLDSBORO CLEAR 28 10 47 NE6 30.29S GREENVILLE CLOUDY 27 18 69 CALM 30.32F HAVELOCK CLEAR 28 21 75 NE3 30.31S KENANSVILLE CLEAR 26 19 76 CALM 30.32R KINSTON CLEAR 29 16 58 NE5 30.33S NEW BERN CLEAR 28 17 63 NE8 30.32S RICHLANDS CLEAR 25 16 68 N3 30.30S ROCKY MOUNT PTCLDY 24 13 62 NE3 30.32S WASHINGTON MOCLDY 24 17 75 CALM 30.32S WHITEVILLE PTCLDY 31 29 90 CALM 30.25F $$ AMZ130-135-150-152-154-156-158-170-250-252-270-ANZ085-086-088-633-658-670-120800- MARINE OBSERVATIONS STATION/POSITION TIME TEMP WIND PRES WAVE SWELL AIR SEA DIR/SP/G HT/PER HT/PER (UTC) (F) (DEG/KT/KT) (MB) (FT/S) (FT/S) CHESAPEAKE LIGHT 0700 28 360/ 15/ 17 1027.7 64 E VA BEACH 0650 33 49 350/ 14/ 17 1026.1 5/ 7 3/ 7 DUCK 0700 33 10/ 12/ 14 1025.8 2 E DUCK 0611 43 N/A 2/ 3 OREGON INLET 0700 31 40 310/ 4/ 6 1026.3 13E OREGON INLT 0700 44 N/A 3/ 5 HATTERAS CG 0700 36 46 10/ 11/ 12 1025.7 DIAMOND BUOY 0650 40 67 360/ 10/ 14 1026.3 3/ 9 2/ 9 CAPE LOOKOUT NOT AVBL BEAUFORT LAB 0700 33 45 30/ 4/ 5 1024.9 30 SE NEW RVR IN 0708 46 59 1025.0 30 SE NEW RVR IN 0625 59 N/A 3/ 7 27 SE WRIGHTSVLE 0708 48 62 110/ 4/ 8 1023.0 5 SE WRIGHTSVLE 0608 46 50 130/ 4/ 8 1025.2 225 S CAPE HAT 0650 56 68 340/ 12/ 16 N/A 6/ 8 5/ 8 41 SE CHARLESTON 0650 58 69 90/ 8/ 10 1022.2 1/ 4 2/ 4 $$

USA.gov is the U.S. government's official web portal to all federal, state and local government web resources and services.